Location: Ackerson Creek
(37.8210°N, 119.8757°W)
Time: 14:47:10
(UTC+00:00)

IRS-1D - Pass Details

Date: 13 April 2024
Orbit: 739 x 813 km, 98.8° (Epoch: 23 May)

Event Time Altitude Azimuth Distance (km) Brightness Sun altitude
Rises 12:29:32 0° 1° (N) 3,228 7.1 -11.5°
Reaches altitude 10° 12:32:04 10° 351° (N) 2,310 6.1 -11.1°
Maximum altitude 12:36:26 30° 292° (WNW) 1,371 4.4 -10.3°
Enters shadow 12:40:46 10° 233° (SW) 2,309 5.4 -9.5°
